Previsão horária em Abaytikau

Hoje, 17 Abril, Sábado

Tempo Temperatura Precipitação Vento Pressão Humidade
00:00 -2°C° 0 mm 3 m/s 577 mmHg 72%
01:00 -2°C° 0 mm 3 m/s 577 mmHg 72%
02:00 -3°C° 0 mm 4 m/s 577 mmHg 71%
03:00 -3°C° 0 mm 4 m/s 577 mmHg 70%
04:00 -3°C° 0 mm 4 m/s 577 mmHg 73%
05:00 -3°C° 0 mm 4 m/s 577 mmHg 75%
06:00 -2°C° 0 mm 4 m/s 577 mmHg 77%
07:00 -1°C° 0 mm 4 m/s 577 mmHg 78%
08:00 +2°C° 0 mm 3 m/s 578 mmHg 80%
09:00 +3°C° 0 mm 3 m/s 578 mmHg 81%
10:00 +4°C° 0 mm 3 m/s 578 mmHg 81%
11:00 +4°C° 0 mm 3 m/s 578 mmHg 81%
12:00 +5°C° 0 mm 3 m/s 579 mmHg 81%
13:00 +5°C° 0.2 mm 3 m/s 579 mmHg 83%
14:00 +5°C° 0.2 mm 3 m/s 578 mmHg 84%
15:00 +4°C° 0.2 mm 3 m/s 578 mmHg 86%
16:00 +4°C° 0.1 mm 3 m/s 578 mmHg 87%
17:00 +5°C° 0.1 mm 2 m/s 578 mmHg 89%
18:00 +4°C° 0.1 mm 2 m/s 578 mmHg 90%
19:00 +4°C° 0.2 mm 2 m/s 578 mmHg 92%
20:00 +3°C° 0.2 mm 3 m/s 578 mmHg 93%
21:00 +2°C° 0.2 mm 3 m/s 578 mmHg 95%
22:00 +2°C° 0.1 mm 3 m/s 578 mmHg 94%
23:00 +2°C° 0.1 mm 3 m/s 578 mmHg 94%

Amanhã, 18 Abril, Domingo

Tempo Temperatura Precipitação Vento Pressão Humidade
00:00 +2°C° 0.1 mm 3 m/s 577 mmHg 94%
01:00 +2°C° 0 mm 3 m/s 577 mmHg 94%
02:00 +1°C° 0 mm 3 m/s 577 mmHg 93%
03:00 +1°C° 0 mm 3 m/s 577 mmHg 93%
04:00 +1°C° 0.1 mm 3 m/s 577 mmHg 93%
05:00 +2°C° 0.1 mm 3 m/s 577 mmHg 93%
06:00 +2°C° 0.1 mm 3 m/s 577 mmHg 93%
07:00 +2°C° 0.1 mm 3 m/s 577 mmHg 93%
08:00 +3°C° 0.1 mm 3 m/s 577 mmHg 92%
09:00 +3°C° 0.1 mm 3 m/s 577 mmHg 91%
10:00 +4°C° 0 mm 3 m/s 577 mmHg 90%
11:00 +5°C° 0 mm 4 m/s 578 mmHg 88%
12:00 +5°C° 0 mm 4 m/s 578 mmHg 87%
13:00 +5°C° 0.3 mm 4 m/s 578 mmHg 87%
14:00 +5°C° 0.3 mm 4 m/s 578 mmHg 87%
15:00 +5°C° 0.3 mm 3 m/s 577 mmHg 87%
16:00 +5°C° 0.8 mm 3 m/s 577 mmHg 89%
17:00 +5°C° 0.8 mm 2 m/s 577 mmHg 91%
18:00 +4°C° 0.8 mm 2 m/s 577 mmHg 93%
19:00 +4°C° 0 mm 2 m/s 577 mmHg 93%
20:00 +4°C° 0 mm 2 m/s 577 mmHg 93%
21:00 +4°C° 0 mm 2 m/s 577 mmHg 93%
22:00 +3°C° 0 mm 2 m/s 577 mmHg 93%
23:00 +3°C° 0 mm 2 m/s 577 mmHg 92%

Depois de amanhã, 19 Abril, Segunda-feira

Tempo Temperatura Precipitação Vento Pressão Humidade
00:00 +3°C° 0 mm 2 m/s 577 mmHg 92%
01:00 +3°C° 0 mm 2 m/s 577 mmHg 91%
02:00 +2°C° 0 mm 2 m/s 577 mmHg 90%
03:00 +2°C° 0 mm 2 m/s 577 mmHg 89%
04:00 +2°C° 0 mm 2 m/s 577 mmHg 88%
05:00 +2°C° 0 mm 2 m/s 577 mmHg 88%
06:00 +2°C° 0 mm 2 m/s 577 mmHg 87%
07:00 +3°C° 0 mm 2 m/s 577 mmHg 86%
08:00 +5°C° 0 mm 2 m/s 578 mmHg 84%
09:00 +6°C° 0 mm 2 m/s 578 mmHg 83%
10:00 +6°C° 0.1 mm 2 m/s 578 mmHg 83%
11:00 +7°C° 0.1 mm 3 m/s 578 mmHg 84%
12:00 +7°C° 0.1 mm 3 m/s 578 mmHg 84%
13:00 +7°C° 0.1 mm 3 m/s 578 mmHg 83%
14:00 +8°C° 0.1 mm 3 m/s 578 mmHg 82%
15:00 +8°C° 0.1 mm 3 m/s 578 mmHg 81%
16:00 +7°C° 0.1 mm 3 m/s 578 mmHg 83%
17:00 +7°C° 0.1 mm 3 m/s 578 mmHg 84%
18:00 +7°C° 0.1 mm 3 m/s 578 mmHg 86%
19:00 +5°C° 0 mm 3 m/s 577 mmHg 85%
20:00 +4°C° 0 mm 3 m/s 577 mmHg 85%
21:00 +4°C° 0 mm 3 m/s 577 mmHg 84%
22:00 +4°C° 0 mm 3 m/s 577 mmHg 84%
23:00 +4°C° 0 mm 4 m/s 577 mmHg 84%

20 Abril, Terça-feira

Tempo Temperatura Precipitação Vento Pressão Humidade
00:00 +4°C° 0 mm 4 m/s 577 mmHg 84%
01:00 +4°C° 0 mm 4 m/s 576 mmHg 83%
02:00 +4°C° 0 mm 4 m/s 576 mmHg 82%
03:00 +4°C° 0 mm 4 m/s 576 mmHg 81%
04:00 +4°C° 0 mm 4 m/s 576 mmHg 79%
05:00 +5°C° 0 mm 4 m/s 576 mmHg 77%
06:00 +5°C° 0 mm 3 m/s 576 mmHg 74%
07:00 +7°C° 0 mm 3 m/s 576 mmHg 73%
08:00 +8°C° 0 mm 4 m/s 576 mmHg 71%
09:00 +10°C° 0 mm 4 m/s 577 mmHg 70%
10:00 +11°C° 0.1 mm 4 m/s 577 mmHg 70%
11:00 +11°C° 0.1 mm 4 m/s 577 mmHg 69%
12:00 +10°C° 0.1 mm 5 m/s 577 mmHg 69%
13:00 +10°C° 0.3 mm 5 m/s 577 mmHg 70%
14:00 +11°C° 0.3 mm 4 m/s 577 mmHg 71%
15:00 +11°C° 0.3 mm 4 m/s 577 mmHg 72%
16:00 +9°C° 1.6 mm 3 m/s 576 mmHg 76%
17:00 +8°C° 1.6 mm 3 m/s 576 mmHg 81%
18:00 +5°C° 1.6 mm 3 m/s 575 mmHg 86%
19:00 +6°C° 0.3 mm 2 m/s 575 mmHg 86%
20:00 +5°C° 0.3 mm 2 m/s 575 mmHg 87%
21:00 +6°C° 0.3 mm 1 m/s 575 mmHg 87%
22:00 +5°C° 1.7 mm 2 m/s 575 mmHg 89%
23:00 +5°C° 1.7 mm 2 m/s 575 mmHg 92%

21 Abril, Quarta-feira

Tempo Temperatura Precipitação Vento Pressão Humidade
00:00 +5°C° 1.7 mm 2 m/s 575 mmHg 94%
01:00 +5°C° 0.1 mm 2 m/s 575 mmHg 95%
02:00 +5°C° 0.1 mm 2 m/s 575 mmHg 96%
03:00 +5°C° 0.1 mm 1 m/s 575 mmHg 96%
04:00 +5°C° 0.1 mm 1 m/s 575 mmHg 96%
05:00 +5°C° 0.1 mm 1 m/s 575 mmHg 95%
06:00 +5°C° 0.1 mm 1 m/s 575 mmHg 95%
07:00 +6°C° 0.1 mm 1 m/s 575 mmHg 93%
08:00 +6°C° 0.1 mm 1 m/s 575 mmHg 92%
09:00 +7°C° 0.1 mm 1 m/s 576 mmHg 91%
10:00 +6°C° 0.3 mm 2 m/s 576 mmHg 86%
11:00 +7°C° 0.3 mm 2 m/s 576 mmHg 81%
12:00 +8°C° 0.3 mm 2 m/s 577 mmHg 77%
13:00 +8°C° 0.4 mm 2 m/s 576 mmHg 74%
14:00 +8°C° 0.4 mm 2 m/s 576 mmHg 71%
15:00 +8°C° 0.4 mm 2 m/s 576 mmHg 69%
16:00 +7°C° 0.7 mm 2 m/s 576 mmHg 76%
17:00 +5°C° 0.7 mm 2 m/s 576 mmHg 83%
18:00 +4°C° 0.7 mm 2 m/s 576 mmHg 90%
19:00 +4°C° 1 mm 2 m/s 576 mmHg 93%
20:00 +4°C° 1 mm 2 m/s 576 mmHg 95%
21:00 +3°C° 1 mm 2 m/s 576 mmHg 98%
22:00 +3°C° 0.5 mm 2 m/s 576 mmHg 98%
23:00 +4°C° 0.5 mm 1 m/s 576 mmHg 98%

22 Abril, Quinta-feira

Tempo Temperatura Precipitação Vento Pressão Humidade
00:00 +4°C° 0.5 mm 1 m/s 576 mmHg 98%
01:00 +3°C° 1.6 mm 2 m/s 576 mmHg 98%
02:00 +2°C° 1.6 mm 2 m/s 576 mmHg 99%
03:00 +2°C° 1.6 mm 2 m/s 575 mmHg 99%
04:00 +2°C° 3 mm 2 m/s 575 mmHg 99%
05:00 +1°C° 3 mm 2 m/s 575 mmHg 99%
06:00 +1°C° 3 mm 2 m/s 576 mmHg 99%
07:00 +2°C° 2.1 mm 1 m/s 576 mmHg 99%
08:00 +2°C° 2.1 mm 1 m/s 576 mmHg 99%
09:00 +2°C° 2.1 mm 1 m/s 577 mmHg 99%
10:00 +2°C° 0.3 mm 1 m/s 577 mmHg 99%
11:00 +2°C° 0.3 mm 1 m/s 577 mmHg 98%
12:00 +2°C° 0.3 mm 1 m/s 577 mmHg 98%
13:00 +3°C° 0.1 mm 1 m/s 577 mmHg 95%
14:00 +3°C° 0.1 mm 1 m/s 578 mmHg 93%
15:00 +3°C° 0.1 mm 1 m/s 578 mmHg 90%
16:00 +3°C° 0 mm 1 m/s 578 mmHg 89%
17:00 +3°C° 0 mm 1 m/s 578 mmHg 87%
18:00 +3°C° 0 mm 1 m/s 578 mmHg 85%
19:00 +1°C° 0 mm 1 m/s 578 mmHg 86%
20:00 0°C° 0 mm 1 m/s 578 mmHg 86%
21:00 -3°C° 0 mm 2 m/s 578 mmHg 87%
22:00 -4°C° 0 mm 2 m/s 578 mmHg 86%
23:00 -4°C° 0 mm 2 m/s 578 mmHg 85%
Mostrar mais